Regional Weather Roundup
Issued by NWS Boston, MA

Home | Current Version | Previous Version | Text Only | Print | Product List | Glossary On
Versions: 1 2 3 4 5 6 7 8 9 10 11 12 13 14 15 16 17 18 19 20 21 22 23 24 25 26 27
000
ASUS41 KBOX 302310
RWRBOX

REGIONAL WEATHER ROUNDUP
NATIONAL WEATHER SERVICE TAUNTON MA
700 PM EDT THU OCT 30 2014

NOTE:  "FAIR" INDICATES FEW OR NO CLOUDS BELOW 12,000 FEET WITH NO
SIGNIFICANT WEATHER AND/OR OBSTRUCTIONS TO VISIBILITY.  THE FOLLOWING
OBSERVATION LOCATIONS DO NOT REPORT PRESENT WEATHER...PROVINCETOWN...
SMITHFIELD...BLOCK ISLAND...KEENE...AND OXFORD.

MAZALL-310000-
EASTERN MASSACHUSETTS

CITY           SKY/WX    TMP DP  RH WIND       PRES   REMARKS
BOSTON         PTCLDY    53  36  52 NW6       29.96R
BEVERLY        PTCLDY    48  39  71 CALM      29.95R
LAWRENCE       CLEAR     48  38  68 CALM      29.98R
BEDFORD        CLEAR     45  37  73 CALM      29.95R
BLUE HILL        N/A     46  37  71 W8        29.95R
NORWOOD        CLEAR     45  37  73 CALM      29.96R
MARSHFIELD     CLOUDY   N/A N/A N/A W3        29.97R
PLYMOUTH       CLOUDY    52  44  74 W3        29.96R
TAUNTON        MOCLDY    48  38  68 CALM      29.96R
NEW BEDFORD    PTCLDY    52  36  54 NW5       29.95R
$$

MAZALL-310000-
CAPE COD AND THE ISLANDS

CITY           SKY/WX    TMP DP  RH WIND       PRES   REMARKS
FALMOUTH       CLEAR     50  43  76 CALM      29.95R
HYANNIS        MOCLDY    50  44  80 CALM      29.94R
CHATHAM        CLOUDY    51  44  77 CALM      29.96R
PROVINCETOWN   CLOUDY    50  -2  11 CALM      29.95S
NANTUCKET      CLEAR     52  42  69 W6        29.94R
MARTHAS VNYRD  PTCLDY    47  39  74 N7        29.95R
$$

MAZALL-310000-
CENTRAL AND WESTERN MASSACHUSETTS

CITY           SKY/WX    TMP DP  RH WIND       PRES   REMARKS
WORCESTER      CLEAR     42  34  73 NW7       29.96R
FITCHBURG      MOCLDY    49  38  65 CALM      29.97R
ORANGE         MOCLDY    42  38  85 CALM      29.97R
SPRINGFIELD    CLEAR     45  36  69 NE2       29.97R
WESTFIELD      CLEAR     42  38  85 CALM      29.97R
NORTH ADAMS    CLOUDY    48  36  63 W6        29.98R
PITTSFIELD     MOCLDY    44  36  73 W14       29.97R
$$

RIZALL-310000-
RHODE ISLAND

CITY           SKY/WX    TMP DP  RH WIND       PRES   REMARKS
PROVIDENCE     PTCLDY    51  35  54 W5        29.97R
NEWPORT        CLEAR     53  36  52 NW8       29.96R
BLOCK ISLAND   PTCLDY    54  36  50 N13       29.96R
SMITHFIELD     CLEAR     45  28  53 CALM      29.96R
WESTERLY       CLEAR     51  35  54 CALM      29.98R
$$

CTZALL-310000-
CONNECTICUT

CITY           SKY/WX    TMP DP  RH WIND       PRES   REMARKS
BRADLEY INTL   PTCLDY    49  35  58 W5        29.97R
HARTFORD       CLEAR     52  36  54 SW8       29.98R
BRIDGEPORT     CLEAR     52  37  56 NW3       29.99R
DANBURY        CLOUDY    48  34  58 SW5       30.00R
GROTON         CLEAR     49  36  61 N6        29.97R
NEW HAVEN      PTCLDY    52  36  54 N3        29.98R
CHESTER        NOT AVBL
MERIDEN        PTCLDY    48  37  65 NW3       29.99R
WILLIMANTIC    PTCLDY    50  36  58 NW5       29.98R
OXFORD         MOCLDY    46  34  61 N7        29.99R
$$

MEZ002-015-021-024-NHZ003-005-008-011-012-014-VTZ005-008-310000-
NORTHERN NEW ENGLAND

CITY           SKY/WX    TMP DP  RH WIND       PRES   REMARKS
PORTLAND ME    PTCLDY    50  37  61 NW5       29.95R
BANGOR ME      PTCLDY    46  34  62 W7        29.92R
CONCORD NH     MOCLDY    45  38  76 CALM      29.96R
MANCHESTER NH  MOCLDY    51  37  58 NW3       29.95R
NASHUA NH      MOCLDY    48  41  77 CALM      29.97R
PORTSMOUTH NH  PTCLDY    48  37  65 W3        29.94R
JAFFREY NH     CLEAR     40  37  89 CALM      29.96R
KEENE NH       CLOUDY    45  34  65 CALM      29.97R
BURLINGTON VT  MOCLDY    46  32  58 N7        30.01R
MT. WASHINGTON FOG       21  21 100 NW36        N/A  VSB 1/16WCI   2
$$

NYZ052-076-310000-
EASTERN NEW YORK

CITY           SKY/WX    TMP DP  RH WIND       PRES   REMARKS
ALBANY         PTCLDY    46  35  65 W13       30.01R
NEW YORK CITY  CLEAR     53  37  54 NW14      30.00R
$$

ANZALL-310000-
MARINE OBSERVATIONS

STATION/POSITION TIME  TEMP    WIND        PRES    VSBY  WAVE
                       AIR SEA DIR/SP/G                  HT/PER
                 (UTC) (F)     (DEG/KT/KT) (MB)    (MI)  (FT/S)
BOSTON BUOY      2250   54 55  340/  8/ 10 1014.2R         1/ 8
BUZZARDS BAY     2200          310/ 15/ 16 1014.4R
NANTUCKET SOUND  2250   56 58   60/  6/  8 1013.6R         1/ 5
MASS BAY-STELLWA 2204   54 54  310/ 10/ 14   N/A    1 7/8  1/ 8
ISLE OF SHOALS   2200   53     300/ 12/ 13 1012.9R
S OF BLOCK IS    2208      61                N/A           3/ 8
$$

......................KEY.........................
  SKY/WX - SKY CONDITION/PRESENT WEATHER
  TMP    - TEMPERATURE IN FAHRENHEIT
  DWPT   - DEWPOINT IN FAHRENHEIT
  RH     - RELATIVE HUMIDITY IN PERCENT
  WIND   - DIRECTION AND SPEED IN MPH
  PRES   - MEAN SEA LEVEL PRESSURE IN INCHES OF HG
  WCI    - WIND CHILL INDEX
  VSB    - VISIBILITY IN MILES
  HX     - HEAT INDEX
  TC     - TEMPERATURE IN CELSIUS
  VRB    - VARIABLE WIND DIRECTION
  N/A    - NOT AVAILABLE



USA.gov is the U.S. government's official web portal to all federal, state and local government web resources and services.